When you browse on this site, cookies collect data to enhance your experience and personalize the content and advertising you see.
Visit our Privacy Policy to learn more. By continuing to use the site, you agree to this use of cookies and data.
  • In Slovakia
  • List of Countries
  • For 7 days
  • Water Temperature
  • Satellite Maps
  • Weather Map
  • Weather Widgets
  • user-avatar
    Login

    Hourly Weather Wiesbaden

    Today, 17 December, Monday

    Time Temperature Precipitation Wind Pressure Humidity
    00:00 +2°C° 0 mm 1 mps 748 mmHg 95%
    01:00 +2°C° 0 mm 1 mps 748 mmHg 96%
    02:00 +2°C° 0 mm 1 mps 748 mmHg 96%
    03:00 +2°C° 0 mm 1 mps 748 mmHg 96%
    04:00 +2°C° 0 mm 1 mps 748 mmHg 96%
    05:00 +2°C° 0 mm 1 mps 749 mmHg 96%
    06:00 +2°C° 0 mm 1 mps 749 mmHg 96%
    07:00 +2°C° 0 mm 1 mps 749 mmHg 96%
    08:00 +1°C° 0 mm 2 mps 750 mmHg 94%
    09:00 +1°C° 0 mm 2 mps 750 mmHg 92%
    10:00 +2°C° 0 mm 2 mps 751 mmHg 91%
    11:00 +2°C° 0.3 mm 2 mps 751 mmHg 89%
    12:00 +3°C° 0.3 mm 2 mps 751 mmHg 88%
    13:00 +3°C° 0.3 mm 2 mps 752 mmHg 86%
    14:00 +3°C° 0.1 mm 2 mps 752 mmHg 88%
    15:00 +3°C° 0.1 mm 2 mps 753 mmHg 89%
    16:00 +3°C° 0.1 mm 2 mps 753 mmHg 91%
    17:00 +3°C° 0 mm 2 mps 754 mmHg 91%
    18:00 +3°C° 0 mm 2 mps 754 mmHg 92%
    19:00 +3°C° 0 mm 2 mps 754 mmHg 93%
    20:00 +3°C° 0 mm 2 mps 755 mmHg 94%
    21:00 +3°C° 0 mm 2 mps 755 mmHg 94%
    22:00 +3°C° 0 mm 2 mps 756 mmHg 95%
    23:00 +2°C° 0 mm 2 mps 756 mmHg 95%

    Tomorrow, 18 December, Tuesday

    Time Temperature Precipitation Wind Pressure Humidity
    00:00 +2°C° 0 mm 2 mps 756 mmHg 96%
    01:00 +2°C° 0 mm 2 mps 756 mmHg 96%
    02:00 +2°C° 0 mm 2 mps 756 mmHg 96%
    03:00 +2°C° 0 mm 2 mps 756 mmHg 96%
    04:00 +3°C° 0 mm 1 mps 756 mmHg 97%
    05:00 +3°C° 0 mm 1 mps 755 mmHg 96%
    06:00 +3°C° 0 mm 1 mps 755 mmHg 96%
    07:00 +2°C° 0 mm 1 mps 755 mmHg 96%
    08:00 +3°C° 0 mm 1 mps 755 mmHg 95%
    09:00 +3°C° 0 mm 1 mps 755 mmHg 94%
    10:00 +3°C° 0 mm 1 mps 755 mmHg 93%
    11:00 +3°C° 0 mm 2 mps 754 mmHg 90%
    12:00 +4°C° 0 mm 2 mps 754 mmHg 87%
    13:00 +4°C° 0 mm 2 mps 753 mmHg 83%
    14:00 +4°C° 0 mm 2 mps 753 mmHg 85%
    15:00 +3°C° 0 mm 2 mps 752 mmHg 87%
    16:00 +3°C° 0 mm 2 mps 752 mmHg 89%
    17:00 +2°C° 0 mm 2 mps 751 mmHg 89%
    18:00 +2°C° 0 mm 2 mps 751 mmHg 90%
    19:00 +1°C° 0 mm 2 mps 750 mmHg 90%
    20:00 +1°C° 0 mm 2 mps 750 mmHg 89%
    21:00 +1°C° 0 mm 2 mps 749 mmHg 89%
    22:00 +1°C° 0 mm 2 mps 749 mmHg 88%
    23:00 +1°C° 0 mm 2 mps 749 mmHg 87%

    Day after tomorrow, 19 December, Wednesday

    Time Temperature Precipitation Wind Pressure Humidity
    00:00 +1°C° 0 mm 2 mps 748 mmHg 86%
    01:00 +1°C° 0 mm 2 mps 748 mmHg 85%
    02:00 +1°C° 0 mm 2 mps 748 mmHg 83%
    03:00 +1°C° 0 mm 2 mps 748 mmHg 81%
    04:00 +1°C° 0 mm 2 mps 747 mmHg 79%
    05:00 +2°C° 0 mm 2 mps 747 mmHg 78%
    06:00 +2°C° 0 mm 2 mps 747 mmHg 77%
    07:00 +2°C° 0 mm 2 mps 747 mmHg 76%
    08:00 +2°C° 0.2 mm 2 mps 747 mmHg 78%
    09:00 +3°C° 0.2 mm 2 mps 747 mmHg 80%
    10:00 +3°C° 0.2 mm 2 mps 747 mmHg 82%
    11:00 +4°C° 0.2 mm 2 mps 747 mmHg 85%
    12:00 +4°C° 0.2 mm 2 mps 747 mmHg 88%
    13:00 +5°C° 0.2 mm 2 mps 747 mmHg 91%
    14:00 +5°C° 0.1 mm 2 mps 747 mmHg 92%
    15:00 +6°C° 0.1 mm 1 mps 747 mmHg 94%
    16:00 +5°C° 0.1 mm 1 mps 746 mmHg 95%
    17:00 +5°C° 0.1 mm 1 mps 747 mmHg 96%
    18:00 +4°C° 0.1 mm 2 mps 747 mmHg 96%
    19:00 +4°C° 0.1 mm 2 mps 747 mmHg 97%
    20:00 +4°C° 0 mm 2 mps 747 mmHg 97%
    21:00 +4°C° 0 mm 2 mps 747 mmHg 97%
    22:00 +4°C° 0 mm 2 mps 747 mmHg 97%
    23:00 +4°C° 0.1 mm 2 mps 747 mmHg 97%

    20 December, Thursday

    Time Temperature Precipitation Wind Pressure Humidity
    00:00 +4°C° 0.1 mm 2 mps 747 mmHg 97%
    01:00 +4°C° 0.1 mm 2 mps 747 mmHg 97%
    02:00 +4°C° 0.1 mm 2 mps 747 mmHg 97%
    03:00 +4°C° 0.1 mm 2 mps 747 mmHg 96%
    04:00 +4°C° 0.1 mm 2 mps 747 mmHg 96%
    05:00 +4°C° 0 mm 2 mps 747 mmHg 96%
    06:00 +4°C° 0 mm 2 mps 747 mmHg 96%
    07:00 +3°C° 0 mm 2 mps 748 mmHg 96%
    08:00 +4°C° 0 mm 2 mps 748 mmHg 95%
    09:00 +4°C° 0 mm 2 mps 748 mmHg 94%
    10:00 +4°C° 0 mm 2 mps 749 mmHg 94%
    11:00 +3°C° 0 mm 3 mps 749 mmHg 90%
    12:00 +4°C° 0 mm 3 mps 749 mmHg 87%
    13:00 +5°C° 0 mm 3 mps 749 mmHg 83%
    14:00 +5°C° 0 mm 3 mps 749 mmHg 85%
    15:00 +5°C° 0 mm 2 mps 749 mmHg 86%
    16:00 +5°C° 0 mm 2 mps 749 mmHg 87%
    17:00 +5°C° 0 mm 2 mps 749 mmHg 88%
    18:00 +5°C° 0 mm 2 mps 749 mmHg 89%
    19:00 +4°C° 0 mm 2 mps 749 mmHg 90%
    20:00 +3°C° 0.1 mm 3 mps 749 mmHg 90%
    21:00 +4°C° 0.1 mm 3 mps 750 mmHg 90%
    22:00 +4°C° 0.1 mm 3 mps 750 mmHg 90%
    23:00 +4°C° 0.4 mm 3 mps 749 mmHg 90%

    21 December, Friday

    Time Temperature Precipitation Wind Pressure Humidity
    00:00 +4°C° 0.4 mm 4 mps 749 mmHg 89%
    01:00 +4°C° 0.4 mm 4 mps 749 mmHg 89%
    02:00 +4°C° 0.4 mm 4 mps 749 mmHg 89%
    03:00 +4°C° 0.4 mm 4 mps 749 mmHg 89%
    04:00 +4°C° 0.4 mm 4 mps 749 mmHg 89%
    05:00 +4°C° 0.1 mm 4 mps 749 mmHg 89%
    06:00 +4°C° 0.1 mm 4 mps 749 mmHg 88%
    07:00 +4°C° 0.1 mm 4 mps 749 mmHg 88%
    08:00 +4°C° 0 mm 3 mps 749 mmHg 88%
    09:00 +4°C° 0 mm 3 mps 749 mmHg 88%
    10:00 +4°C° 0 mm 3 mps 749 mmHg 88%
    11:00 +5°C° 0.1 mm 3 mps 749 mmHg 87%
    12:00 +5°C° 0.1 mm 3 mps 748 mmHg 86%
    13:00 +7°C° 0.1 mm 3 mps 748 mmHg 85%
    14:00 +7°C° 0.4 mm 3 mps 747 mmHg 87%
    15:00 +5°C° 0.4 mm 3 mps 747 mmHg 89%
    16:00 +5°C° 0.4 mm 3 mps 746 mmHg 91%
    17:00 +5°C° 0.6 mm 3 mps 746 mmHg 91%
    18:00 +5°C° 0.6 mm 3 mps 746 mmHg 91%
    19:00 +6°C° 0.6 mm 4 mps 745 mmHg 91%
    20:00 +6°C° 0.1 mm 4 mps 745 mmHg 91%
    21:00 +7°C° 0.1 mm 4 mps 745 mmHg 91%
    22:00 +7°C° 0.1 mm 4 mps 745 mmHg 91%
    23:00 +8°C° 0.1 mm 4 mps 745 mmHg 91%

    22 December, Saturday

    Time Temperature Precipitation Wind Pressure Humidity
    00:00 +8°C° 0.1 mm 4 mps 746 mmHg 91%
    01:00 +8°C° 0.1 mm 4 mps 746 mmHg 92%
    02:00 +8°C° 0.1 mm 4 mps 746 mmHg 89%
    03:00 +8°C° 0.1 mm 5 mps 747 mmHg 87%
    04:00 +8°C° 0.1 mm 5 mps 748 mmHg 85%
    05:00 +7°C° 0 mm 4 mps 749 mmHg 86%
    06:00 +7°C° 0 mm 4 mps 749 mmHg 86%
    07:00 +6°C° 0 mm 4 mps 750 mmHg 87%
    08:00 +6°C° 0 mm 4 mps 750 mmHg 87%
    09:00 +7°C° 0 mm 3 mps 751 mmHg 87%
    10:00 +7°C° 0 mm 3 mps 752 mmHg 87%
    11:00 +7°C° 0.1 mm 3 mps 752 mmHg 86%
    12:00 +8°C° 0.1 mm 3 mps 752 mmHg 86%
    13:00 +8°C° 0.1 mm 3 mps 752 mmHg 86%
    14:00 +8°C° 0.1 mm 3 mps 752 mmHg 87%
    15:00 +8°C° 0.1 mm 2 mps 751 mmHg 88%
    16:00 +8°C° 0.1 mm 2 mps 751 mmHg 89%
    17:00 +8°C° 0.4 mm 2 mps 752 mmHg 91%
    18:00 +7°C° 0.4 mm 2 mps 752 mmHg 93%
    19:00 +8°C° 0.4 mm 1 mps 752 mmHg 95%
    20:00 +8°C° 0.1 mm 1 mps 752 mmHg 95%
    21:00 +8°C° 0.1 mm 1 mps 753 mmHg 95%
    22:00 +8°C° 0.1 mm 1 mps 753 mmHg 96%
    23:00 +8°C° 0 mm 1 mps 754 mmHg 96%
    Show more